User: anonymous   Login
Location: Doazon
(43.4500°N, 0.5500°W)
Time: 17:03:59
(UTC+00:00)
Language:

Cosmos 2263 Rocket - Orbit

View from above orbital plane
View from above orbital plane
View from above satellite
View from above satellite

Ground track
Ground track

The orbit is defined by the following mean orbital elements,

1 22803U          26039.46797926 +.00000000 +00000-0 +99340-4 0 00007
2 22803  70.9892  72.7519 0019495 256.6657 103.2293 14.17227484    08
Epoch (UTC): 08 February 2026 11:13:53
Eccentricity: 0.0019495
inclination: 70.9892°
perigee height: 821 km
apogee height: 849 km
right ascension of ascending node: 72.7519°
argument of perigee: 256.6657°
revolutions per day: 14.17227484
mean anomaly at epoch: 103.2293°

The dashed part of the orbit path shows where the satellite is in the earth's shadow,  

DLR